Find Starlink 11292

NORAD ID: 61203 Int'l Des: 2024-171 Owner: SPXS Country: US Constellation: starlink operational
LEOCIRCULAR

現在のビュー

3D地球を読み込み中...

About Starlink 11292

Starlink 11292 (NORAD 61203) is a starlink constellation satellite (v2 mini d2c) launched Sep 20, 2024 by SPXS of US. It operates in LEO, CIRCULAR orbit with a mass of 960.00 kg.

Starlink 11292について

説明を読み込み中...

次回通過

Passes for default location (London). Set your location on the main map for personalized predictions.

高度履歴

Loading altitude history...

軌道要素

1 61203U 24171D 26170.33895111 .00000114 00000-0 57982-5 0 9996
2 61203 53.1600 35.1885 0001033 91.8589 268.2547 15.69707453100367
Epoch: Jun 19, 2026 • Age: 17 hours

現在のステータス

高度 360.0 km
速度 7.70 km/s
衛星直下点 20.46°N, 123.79°E
打ち上げ日 Sep 20, 2024
運用期間 1.7 years
タイプ internet

技術仕様

分類 Payload
質量 960.00 kg
乾燥質量 910.00 kg
総質量 960.00 kg
長さ 0.30 m
直径 4.10 m
スパン 29.00 m
形状 Box + pan
製造者 SPXS
バスタイプ Starlink V2MD
フェーズステータス In Orbit
所有者/国 SPXS/US

Most Searched